FW0014 Weather Reports


Display with metric or nautical units.
time (UTC)temp
F
wind
direction
speed
MPH
gust
MPH
rain 1hr
in
rain 24hr
in
rain mn
in
humidity
%
barometer
mb
20260508174041 67 110 0.0 0.0 0.00 0.01 0.00 85 1013.0
20260508173814 68 110 0.0 0.0 0.00 0.01 0.00 86 1013.9
20260508173533 67 71 0.0 0.0 0.00 0.01 0.00 86 1013.0
20260508173330 67 60 0.0 0.0 0.00 0.01 0.00 86 1013.9
20260508173030 67 77 0.0 0.0 0.00 0.01 0.00 86 1013.2
20260508172826 67 93 0.0 0.0 0.00 0.01 0.00 86 1014.1
20260508172524 67 72 0.0 0.0 0.00 0.01 0.00 86 1013.3
20260508172322 67 75 0.0 0.0 0.00 0.01 0.00 86 1014.2
20260508172003 67 30 0.0 0.0 0.00 0.01 0.00 86 1013.4
20260508171817 67 66 0.0 0.0 0.00 0.01 0.00 86 1014.3
20260508171557 67 58 0.0 0.0 0.00 0.01 0.00 86 1013.5
20260508171314 67 73 0.0 0.0 0.00 0.01 0.00 86 1014.5
20260508171049 66 85 0.0 0.0 0.00 0.01 0.00 86 1013.6
20260508170851 67 75 0.0 0.0 0.00 0.01 0.00 86 1014.5
20260508170515 66 120 0.0 0.0 0.00 0.01 0.00 86 1013.9
20260508170327 67 121 0.0 0.0 0.00 0.01 0.00 86 1014.7
20260508170007 67 87 0.0 0.0 0.00 0.01 0.00 86 1014.0
20260508165824 67 95 0.0 0.0 0.00 0.01 0.00 86 1014.8
20260508165601 67 110 0.0 0.0 0.00 0.01 0.00 86 1014.1
20260508165340 67 118 0.0 0.0 0.00 0.01 0.00 86 1014.9
20260508165049 67 73 0.0 4.0 0.00 0.01 0.00 86 1014.1
20260508164830 67 125 0.0 4.0 0.00 0.01 0.00 86 1014.9
20260508164543 66 125 0.0 6.0 0.00 0.01 0.00 86 1014.1
20260508164326 67 120 0.0 6.0 0.00 0.01 0.00 86 1014.9
20260508164031 66 108 2.0 7.0 0.00 0.01 0.00 86 1014.1
20260508163822 66 147 1.0 7.0 0.00 0.01 0.00 86 1014.9
20260508163521 66 148 1.0 7.0 0.00 0.01 0.00 86 1014.2
20260508163318 66 148 3.0 7.0 0.00 0.01 0.00 86 1015.0
20260508163017 66 97 2.0 7.0 0.00 0.01 0.00 86 1014.2
20260508162815 66 90 3.0 7.0 0.00 0.01 0.00 86 1015.0
20260508162503 66 130 2.0 7.0 0.00 0.01 0.00 86 1014.3
20260508162331 66 109 4.0 7.0 0.00 0.01 0.00 86 1015.1
20260508162058 65 197 2.0 8.0 0.00 0.01 0.00 87 1014.3
20260508161826 66 197 3.0 8.0 0.00 0.01 0.00 86 1015.1
20260508161535 65 148 2.0 8.0 0.00 0.01 0.00 86 1014.4
20260508161324 66 148 4.0 8.0 0.00 0.01 0.00 86 1015.1
20260508161023 65 122 3.0 8.0 0.00 0.01 0.00 86 1014.4
20260508160840 66 147 5.0 8.0 0.00 0.01 0.00 86 1015.2
20260508160548 65 170 1.0 6.0 0.00 0.01 0.00 86 1014.3
20260508160316 66 214 2.0 5.0 0.00 0.01 0.00 86 1015.1
20260508160041 65 185 3.0 5.0 0.00 0.01 0.00 86 1014.5
20260508155851 65 262 3.0 6.0 0.00 0.01 0.00 86 1015.2
20260508155505 65 125 2.0 5.0 0.00 0.01 0.00 87 1014.4
20260508155327 65 127 2.0 5.0 0.00 0.01 0.00 86 1015.2
20260508155059 65 149 3.0 6.0 0.00 0.01 0.00 86 1014.4
20260508154824 65 161 4.0 7.0 0.00 0.01 0.00 87 1015.1
20260508154557 64 149 2.0 7.0 0.00 0.01 0.00 87 1014.5
20260508154321 65 152 4.0 7.0 0.00 0.01 0.00 86 1015.3
20260508154049 64 167 2.0 5.0 0.00 0.01 0.00 86 1014.5
20260508153817 64 215 2.0 4.0 0.00 0.01 0.00 86 1015.1
20260508153537 64 214 2.0 8.0 0.00 0.01 0.00 86 1014.4
20260508153329 64 165 3.0 8.0 0.00 0.01 0.00 86 1015.2
20260508153031 63 166 3.0 8.0 0.00 0.01 0.00 86 1014.4
20260508152845 64 147 4.0 8.0 0.00 0.01 0.00 86 1015.3
20260508152500 63 161 5.0 6.0 0.00 0.01 0.00 86 1014.5
20260508152320 64 135 4.0 7.0 0.00 0.01 0.00 87 1015.1
20260508152055 63 145 3.0 5.0 0.00 0.01 0.00 87 1014.4
20260508151817 63 187 3.0 6.0 0.00 0.01 0.00 87 1015.1
20260508151547 63 141 4.0 6.0 0.00 0.01 0.00 87 1014.4
20260508151332 63 162 4.0 6.0 0.00 0.01 0.00 87 1015.1
20260508151039 62 162 2.0 8.0 0.00 0.01 0.00 87 1014.4
20260508150829 63 162 5.0 8.0 0.00 0.01 0.00 87 1015.1
20260508150533 62 165 4.0 8.0 0.00 0.01 0.00 87 1014.4
20260508150326 63 156 6.0 8.0 0.00 0.01 0.00 87 1015.0
20260508150027 62 162 3.0 6.0 0.00 0.01 0.00 87 1014.4
20260508145824 63 188 4.0 6.0 0.00 0.01 0.00 87 1015.1
20260508145523 62 133 2.0 7.0 0.00 0.01 0.00 87 1014.4
20260508145320 62 149 4.0 7.0 0.00 0.01 0.00 87 1015.0
20260508145004 62 149 4.0 8.0 0.00 0.01 0.00 87 1014.3
20260508144817 62 169 5.0 8.0 0.00 0.01 0.00 87 1015.0
20260508144601 62 156 3.0 8.0 0.00 0.01 0.00 87 1014.3
20260508144314 62 164 5.0 8.0 0.00 0.01 0.00 88 1015.0
20260508144053 62 130 0.0 3.0 0.00 0.01 0.00 88 1014.4
20260508143829 62 130 1.0 3.0 0.00 0.01 0.00 88 1014.9
20260508143545 61 130 1.0 3.0 0.00 0.01 0.00 88 1014.2
20260508143324 61 37 1.0 4.0 0.00 0.01 0.00 88 1015.0
20260508143039 61 37 0.0 5.0 0.00 0.01 0.00 89 1014.3
20260508142839 61 37 0.0 5.0 0.00 0.01 0.00 88 1014.8
20260508142527 60 4 3.0 5.0 0.00 0.01 0.00 88 1014.0
20260508142330 61 34 3.0 4.0 0.00 0.01 0.00 89 1014.6
20260508142011 60 22 1.0 3.0 0.00 0.01 0.00 89 1014.0
20260508141826 60 23 2.0 3.0 0.00 0.01 0.00 89 1014.9
20260508141509 60 22 0.0 3.0 0.00 0.01 0.00 89 1014.6
20260508141322 60 22 0.0 3.0 0.00 0.01 0.00 89 1015.3
20260508141056 60 19 1.0 3.0 0.00 0.01 0.00 89 1014.7
20260508140819 60 18 2.0 3.0 0.00 0.01 0.00 89 1015.5
20260508140553 59 101 1.0 3.0 0.00 0.01 0.00 89 1014.8
20260508140316 60 101 1.0 3.0 0.00 0.01 0.00 90 1015.5
20260508140048 59 101 0.0 2.0 0.00 0.01 0.00 90 1014.9
20260508135830 60 101 0.0 2.0 0.00 0.01 0.00 90 1015.5
20260508135533 59 101 0.0 2.0 0.00 0.01 0.00 90 1014.9
20260508135326 59 101 0.0 2.0 0.00 0.01 0.00 90 1015.6
20260508135026 59 101 0.0 2.0 0.00 0.01 0.00 90 1015.0
20260508134823 59 101 1.0 2.0 0.00 0.01 0.00 90 1015.6
20260508134511 58 101 0.0 1.0 0.00 0.01 0.00 90 1014.9
20260508134339 59 101 0.0 1.0 0.00 0.01 0.00 90 1015.6
20260508134040 58 101 0.0 1.0 0.00 0.01 0.00 90 1014.9
20260508133834 59 101 0.0 2.0 0.00 0.01 0.00 90 1015.7
20260508133532 58 101 0.0 2.0 0.00 0.01 0.00 90 1015.2
20260508133330 58 101 0.0 2.0 0.00 0.01 0.00 90 1015.9
20260508133021 58 101 0.0 1.0 0.00 0.01 0.00 90 1015.3
20260508132827 58 101 0.0 1.0 0.00 0.01 0.00 90 1015.9
20260508132514 58 102 0.0 1.0 0.00 0.01 0.00 90 1015.2
20260508132322 58 101 0.0 1.0 0.00 0.01 0.00 90 1015.9
20260508132001 58 102 0.0 1.0 0.00 0.01 0.00 90 1015.3
20260508131839 58 101 0.0 2.0 0.00 0.01 0.00 90 1015.9
20260508131535 58 101 0.0 2.0 0.00 0.01 0.00 90 1015.3
20260508131333 58 101 0.0 2.0 0.00 0.01 0.00 90 1016.0
20260508131014 58 101 1.0 2.0 0.00 0.01 0.00 90 1015.3
20260508130830 58 101 1.0 2.0 0.00 0.01 0.00 90 1016.0
20260508130506 58 101 0.0 1.0 0.00 0.01 0.00 90 1015.4
20260508130326 58 101 1.0 1.0 0.00 0.01 0.00 90 1016.1
20260508130001 58 101 0.0 2.0 0.00 0.01 0.00 90 1015.5
20260508125822 58 101 0.0 2.0 0.00 0.01 0.00 90 1016.1
20260508125557 57 101 0.0 2.0 0.00 0.01 0.00 90 1015.6
20260508125317 58 101 0.0 2.0 0.00 0.01 0.00 90 1016.3
20260508125031 57 101 0.0 1.0 0.00 0.01 0.00 90 1015.6
20260508124833 58 101 0.0 2.0 0.00 0.01 0.00 90 1016.4
20260508124514 57 101 0.0 2.0 0.00 0.01 0.00 90 1015.8
20260508124328 58 101 0.0 2.0 0.00 0.01 0.00 90 1016.4
20260508124007 57 101 0.0 3.0 0.00 0.01 0.00 90 1015.5
20260508123822 58 101 1.0 3.0 0.00 0.01 0.00 90 1016.1
20260508123601 57 101 1.0 5.0 0.00 0.01 0.00 90 1015.4
20260508123340 58 152 1.0 5.0 0.00 0.01 0.00 90 1016.1
20260508123032 57 152 2.0 5.0 0.00 0.01 0.00 90 1015.7
20260508122815 58 182 1.0 4.0 0.00 0.01 0.00 90 1016.3
20260508122512 57 181 1.0 4.0 0.00 0.01 0.00 90 1015.6
20260508122328 58 182 2.0 5.0 0.00 0.01 0.00 91 1016.3
20260508122007 57 182 2.0 5.0 0.00 0.01 0.00 91 1015.7
20260508121825 58 182 3.0 5.0 0.00 0.01 0.00 91 1016.2
20260508121610 57 182 3.0 5.0 0.00 0.01 0.00 91 1015.5
20260508121341 57 195 3.0 4.0 0.00 0.01 0.00 91 1016.1
20260508121033 57 149 1.0 2.0 0.00 0.01 0.00 91 1015.4
20260508120817 57 149 1.0 2.0 0.00 0.01 0.00 91 1015.9
20260508120514 57 149 0.0 1.0 0.00 0.01 0.00 91 1015.2
20260508120354 57 149 0.0 1.0 0.00 0.01 0.00 91 1015.9
20260508120055 57 149 0.0 2.0 0.00 0.01 0.00 91 1015.1
20260508115828 57 149 0.0 2.0 0.00 0.01 0.00 91 1015.8
20260508115526 57 149 0.0 2.0 0.00 0.01 0.00 91 1015.1
20260508115324 57 149 0.0 3.0 0.00 0.01 0.00 91 1015.7
20260508115050 57 149 1.0 5.0 0.00 0.01 0.00 91 1015.1
20260508114841 57 149 1.0 5.0 0.00 0.01 0.00 91 1015.7
20260508114522 57 149 2.0 5.0 0.00 0.01 0.00 91 1015.2
20260508114316 57 149 2.0 3.0 0.00 0.01 0.00 91 1015.8
20260508114011 57 149 1.0 3.0 0.00 0.01 0.00 91 1015.1
20260508113852 57 149 2.0 3.0 0.00 0.01 0.00 91 1015.8
20260508113542 57 149 1.0 3.0 0.00 0.01 0.00 91 1015.0
20260508113347 57 149 2.0 3.0 0.00 0.01 0.00 91 1015.6
20260508113005 57 149 2.0 3.0 0.00 0.01 0.00 91 1015.0
20260508112821 57 149 2.0 3.0 0.00 0.01 0.00 91 1015.7
20260508112536 57 149 1.0 3.0 0.00 0.01 0.00 91 1015.0
20260508112317 57 149 1.0 5.0 0.00 0.01 0.00 91 1015.5
20260508112032 57 149 0.0 5.0 0.00 0.01 0.00 91 1015.0
20260508111854 57 149 1.0 5.0 0.00 0.01 0.00 91 1015.6
20260508111559 57 149 3.0 5.0 0.00 0.01 0.00 91 1015.1
20260508111329 57 149 3.0 5.0 0.00 0.01 0.00 91 1015.8
20260508111045 57 149 1.0 3.0 0.00 0.01 0.00 91 1015.1
20260508110825 57 149 1.0 2.0 0.00 0.01 0.00 91 1015.7
20260508110538 57 149 0.0 3.0 0.00 0.01 0.00 91 1015.0
20260508110337 57 149 1.0 3.0 0.00 0.01 0.00 91 1015.6
20260508110007 57 149 1.0 3.0 0.00 0.01 0.00 91 1015.1
20260508105853 58 150 2.0 3.0 0.00 0.01 0.00 91 1015.9
20260508105541 57 149 2.0 3.0 0.00 0.01 0.00 91 1015.3
20260508105328 57 149 2.0 3.0 0.00 0.01 0.00 91 1016.0
20260508105033 57 120 1.0 3.0 0.00 0.01 0.00 91 1015.2
20260508104824 57 35 1.0 3.0 0.00 0.01 0.00 91 1015.9
20260508104529 57 35 0.0 3.0 0.00 0.01 0.00 91 1015.3
20260508104320 57 35 1.0 3.0 0.00 0.01 0.00 91 1015.9
20260508104020 57 35 1.0 3.0 0.00 0.01 0.00 91 1015.5
20260508103816 57 35 0.0 3.0 0.00 0.01 0.00 91 1016.1
20260508103514 57 35 0.0 3.0 0.00 0.01 0.00 91 1015.5
20260508103332 57 35 1.0 3.0 0.00 0.01 0.00 91 1016.0
20260508103131 57 35 0.0 1.0 0.00 0.01 0.00 91 1015.5
20260508102849 57 35 0.0 1.0 0.00 0.01 0.00 91 1016.3
20260508102529 57 35 0.0 2.0 0.00 0.01 0.00 91 1015.8
20260508102324 57 35 0.0 2.0 0.00 0.01 0.00 91 1016.5
20260508102022 57 35 0.0 3.0 0.00 0.01 0.00 91 1015.9
20260508101819 57 35 1.0 3.0 0.00 0.01 0.00 91 1016.5
20260508101514 57 35 0.0 3.0 0.00 0.01 0.00 91 1015.8
20260508101317 58 35 1.0 3.0 0.00 0.01 0.00 91 1016.4
20260508101101 57 35 0.0 2.0 0.00 0.01 0.00 91 1015.9
20260508100833 58 35 1.0 2.0 0.00 0.01 0.00 91 1016.5
20260508100553 57 35 0.0 2.0 0.00 0.01 0.00 91 1016.0
20260508100329 57 35 0.0 0.0 0.00 0.01 0.00 91 1016.7
20260508100046 57 35 0.0 1.0 0.00 0.01 0.00 91 1016.2
20260508095826 57 35 0.0 1.0 0.00 0.01 0.00 91 1016.7
20260508095540 57 35 0.0 2.0 0.00 0.01 0.00 91 1016.2
20260508095323 57 35 0.0 2.0 0.00 0.01 0.00 91 1016.7
20260508095029 57 35 0.0 2.0 0.00 0.01 0.00 91 1016.1
20260508094819 57 35 1.0 2.0 0.00 0.01 0.00 91 1016.8
20260508094522 57 35 0.0 2.0 0.00 0.01 0.00 91 1016.4
20260508094315 57 35 0.0 1.0 0.00 0.01 0.00 91 1016.9
20260508094014 57 35 0.0 1.0 0.00 0.01 0.00 91 1016.3
20260508093832 57 35 0.0 2.0 0.00 0.01 0.00 91 1016.8
20260508093505 57 35 0.0 2.0 0.00 0.01 0.00 91 1016.3
20260508093328 57 35 0.0 2.0 0.00 0.01 0.00 91 1016.8
20260508093056 57 35 0.0 2.0 0.00 0.01 0.00 91 1016.2
20260508092823 57 35 0.0 0.0 0.00 0.01 0.00 91 1016.9
20260508092548 56 35 0.0 1.0 0.00 0.01 0.00 91 1016.3
20260508092320 57 35 0.0 1.0 0.00 0.01 0.00 91 1016.9
20260508092042 56 35 0.0 1.0 0.00 0.01 0.00 91 1016.3
20260508091817 57 35 0.0 2.0 0.00 0.01 0.00 91 1016.8
20260508091536 56 35 0.0 2.0 0.00 0.01 0.00 91 1016.2
20260508091354 57 35 0.0 3.0 0.00 0.01 0.00 91 1016.6
20260508091101 56 35 0.0 4.0 0.00 0.01 0.00 91 1016.1
20260508090851 57 35 1.0 4.0 0.00 0.01 0.00 91 1016.6
20260508090530 56 35 1.0 4.0 0.00 0.01 0.00 91 1015.8
20260508090347 57 35 2.0 4.0 0.00 0.01 0.00 91 1016.5
20260508090107 56 35 0.0 3.0 0.00 0.01 0.00 91 1016.1
20260508085842 57 35 2.0 4.0 0.00 0.01 0.00 91 1016.7
20260508085526 56 294 0.0 4.0 0.00 0.01 0.00 91 1016.3
20260508085337 57 294 2.0 4.0 0.00 0.01 0.00 91 1017.0
20260508085050 56 324 2.0 4.0 0.00 0.01 0.00 91 1016.4
20260508084827 57 4 2.0 3.0 0.00 0.01 0.00 91 1016.9
20260508084546 56 4 0.0 0.0 0.00 0.01 0.00 91 1016.5
20260508084324 56 4 0.0 0.0 0.00 0.01 0.00 91 1017.0
20260508084039 56 4 0.0 0.0 0.00 0.01 0.00 91 1016.5
20260508083821 56 4 0.0 0.0 0.00 0.01 0.00 91 1017.0
20260508083529 56 4 0.0 0.0 0.00 0.01 0.00 91 1016.4
20260508083317 56 4 0.0 0.0 0.00 0.01 0.00 91 1016.9
20260508083020 56 4 0.0 0.0 0.00 0.01 0.00 91 1016.3
20260508082814 56 4 0.0 0.0 0.00 0.01 0.00 91 1016.9
20260508082546 56 4 0.0 0.0 0.00 0.01 0.00 91 1016.2
20260508082331 56 4 0.0 0.0 0.00 0.01 0.00 91 1016.7
20260508082040 55 4 0.0 0.0 0.00 0.01 0.00 91 1015.9
20260508081827 56 4 0.0 2.0 0.00 0.01 0.00 91 1016.5
20260508081536 55 4 0.0 3.0 0.00 0.01 0.00 91 1016.0
20260508081323 56 4 0.0 3.0 0.00 0.01 0.00 91 1016.5
20260508081029 55 4 1.0 3.0 0.00 0.01 0.00 91 1015.8
20260508080821 56 4 2.0 3.0 0.00 0.01 0.00 91 1016.4
20260508080521 55 4 0.0 2.0 0.00 0.01 0.00 91 1015.6
20260508080317 55 4 1.0 1.0 0.00 0.01 0.00 91 1016.3
20260508075831 55 4 0.0 0.0 0.00 0.01 0.00 91 1016.1
20260508075553 55 4 0.0 1.0 0.00 0.01 0.00 91 1015.4
20260508075328 55 4 0.0 1.0 0.00 0.01 0.00 91 1016.0
20260508075045 55 4 0.0 1.0 0.00 0.01 0.00 91 1015.3
20260508074824 55 4 0.0 1.0 0.00 0.01 0.00 91 1016.0
20260508074538 55 4 0.0 0.0 0.00 0.01 0.00 91 1015.2
20260508074320 55 4 0.0 0.0 0.00 0.01 0.00 91 1015.9
20260508074028 55 4 0.0 0.0 0.00 0.01 0.00 91 1015.3
20260508073816 55 4 0.0 0.0 0.00 0.01 0.00 90 1016.0
20260508073523 54 4 0.0 1.0 0.00 0.01 0.00 90 1015.4
20260508073332 55 4 0.0 1.0 0.00 0.01 0.00 90 1016.0
20260508073008 55 4 0.0 1.0 0.00 0.01 0.00 90 1015.4
20260508072828 55 4 0.0 1.0 0.00 0.01 0.00 90 1016.1
20260508072507 54 4 0.0 1.0 0.00 0.01 0.00 90 1015.5
20260508072324 55 4 0.0 1.0 0.00 0.01 0.00 90 1016.1
20260508072102 54 4 0.0 0.0 0.00 0.01 0.00 90 1015.5
20260508071819 55 4 0.0 0.0 0.00 0.01 0.00 90 1016.2
20260508071555 55 4 0.0 0.0 0.00 0.01 0.00 90 1015.6
20260508071315 55 4 0.0 0.0 0.00 0.01 0.00 90 1016.1
20260508071046 55 4 0.0 0.0 0.00 0.01 0.00 90 1015.5
20260508070831 55 4 0.0 0.0 0.00 0.01 0.00 90 1016.0
20260508070538 55 4 0.0 0.0 0.00 0.01 0.00 90 1015.3
20260508070326 55 4 0.0 0.0 0.00 0.01 0.00 90 1016.0
20260508070030 55 4 0.0 0.0 0.00 0.01 0.00 90 1015.4
20260508065822 56 4 0.0 0.0 0.00 0.01 0.00 90 1016.1
20260508065524 55 4 0.0 0.0 0.00 0.01 0.00 90 1015.5
20260508065319 56 4 0.0 0.0 0.00 0.01 0.00 90 1016.3
20260508065018 55 4 0.0 0.0 0.00 0.01 0.00 90 1015.7
20260508064815 56 4 0.0 0.0 0.00 0.01 0.00 90 1016.4
20260508064615 55 4 0.0 0.0 0.00 0.01 0.00 90 1015.9
20260508064333 56 4 0.0 0.0 0.00 0.01 0.00 90 1016.6
20260508064054 55 4 0.0 0.0 0.00 0.01 0.00 90 1016.0
20260508063827 56 4 0.0 0.0 0.00 0.01 0.00 90 1016.6
20260508063544 55 4 0.0 0.0 0.00 0.01 0.00 90 1015.9
20260508063324 56 4 0.0 0.0 0.00 0.01 0.00 90 1016.6
20260508063039 55 4 0.0 0.0 0.00 0.01 0.00 90 1016.0
20260508062840 56 4 0.0 0.0 0.00 0.01 0.00 89 1016.7
20260508062504 55 4 0.0 0.0 0.00 0.01 0.00 89 1016.2
20260508062336 56 4 0.0 0.0 0.00 0.01 0.00 90 1016.7
20260508062036 55 4 0.0 0.0 0.00 0.01 0.00 90 1016.2
20260508061829 56 4 0.0 0.0 0.00 0.01 0.00 89 1016.8
20260508061534 55 4 0.0 1.0 0.00 0.01 0.00 89 1016.1
20260508061326 56 4 0.0 2.0 0.00 0.01 0.00 89 1016.7
20260508061027 55 4 0.0 2.0 0.00 0.01 0.00 89 1016.1
20260508060824 56 4 0.0 2.0 0.00 0.01 0.00 89 1016.9
20260508060518 56 4 0.0 2.0 0.00 0.01 0.00 89 1016.3
20260508060319 56 4 0.0 0.0 0.00 0.01 0.00 89 1016.9
20260508060104 56 4 0.0 0.0 0.00 0.01 0.00 89 1016.3
20260508055832 56 4 0.0 0.0 0.00 0.01 0.00 89 1016.8
20260508055540 56 4 0.0 1.0 0.00 0.01 0.00 89 1016.3
20260508055329 56 4 0.0 1.0 0.00 0.01 0.00 89 1016.9
20260508055032 56 4 0.0 1.0 0.00 0.01 0.00 89 1016.3
20260508054823 56 4 0.0 1.0 0.00 0.01 0.00 89 1017.0
20260508054526 56 4 0.0 1.0 0.00 0.01 0.00 89 1016.5
20260508054319 56 4 0.0 1.0 0.00 0.01 0.00 89 1017.1
20260508054021 56 4 0.0 2.0 0.00 0.01 0.00 89 1016.5
20260508053815 56 4 0.0 2.0 0.00 0.01 0.00 89 1017.0
20260508053506 56 4 0.0 2.0 0.00 0.01 0.00 90 1016.4
20260508053331 56 4 1.0 2.0 0.00 0.01 0.00 90 1017.2
20260508053102 56 4 0.0 2.0 0.00 0.01 0.00 89 1016.4
20260508052828 56 4 0.0 3.0 0.00 0.01 0.00 89 1017.0
20260508052554 56 4 0.0 3.0 0.00 0.01 0.00 89 1016.2
20260508052325 56 4 1.0 3.0 0.00 0.01 0.00 89 1016.9
20260508052047 56 4 1.0 3.0 0.00 0.01 0.00 89 1016.3
20260508051820 56 4 0.0 0.0 0.00 0.01 0.00 89 1017.0
20260508051546 56 4 0.0 0.0 0.00 0.01 0.00 89 1016.5
20260508051316 56 4 0.0 0.0 0.00 0.01 0.00 89 1017.2
20260508051030 56 4 0.0 0.0 0.00 0.01 0.00 89 1016.5
20260508050834 56 4 0.0 0.0 0.00 0.01 0.00 89 1017.2
20260508050513 56 4 0.0 0.0 0.00 0.01 0.00 89 1016.5
20260508050322 56 4 0.0 0.0 0.00 0.01 0.00 89 1017.3
20260508050048 56 4 0.0 0.0 0.00 0.01 0.00 89 1016.7
20260508045831 56 4 0.0 0.0 0.00 0.01 0.01 89 1017.4
20260508045509 56 4 0.0 0.0 0.00 0.01 0.01 89 1016.5
20260508045350 56 4 0.0 0.0 0.00 0.01 0.01 89 1017.1
20260508045038 56 4 0.0 0.0 0.00 0.01 0.01 88 1016.4
20260508044824 57 4 0.0 0.0 0.00 0.01 0.01 88 1017.2
20260508044533 56 4 0.0 0.0 0.00 0.01 0.01 88 1016.7
20260508044340 57 4 0.0 0.0 0.00 0.01 0.01 88 1017.2
20260508044057 56 4 0.0 0.0 0.00 0.01 0.01 88 1016.5
20260508043815 57 4 0.0 0.0 0.00 0.01 0.01 88 1017.0
20260508043550 56 4 0.0 0.0 0.00 0.01 0.01 88 1016.5
20260508043331 57 4 0.0 0.0 0.00 0.01 0.01 88 1017.2
20260508043042 56 4 0.0 0.0 0.00 0.01 0.01 88 1016.7
20260508042828 57 4 0.0 0.0 0.00 0.01 0.01 88 1017.4
20260508042534 56 4 0.0 0.0 0.00 0.01 0.01 88 1016.7
20260508042325 57 4 0.0 0.0 0.00 0.01 0.01 88 1017.4
20260508042026 56 4 0.0 0.0 0.00 0.01 0.01 88 1016.8
20260508041822 57 4 0.0 0.0 0.00 0.01 0.01 88 1017.5
20260508041522 57 4 0.0 2.0 0.00 0.01 0.01 88 1016.8
20260508041320 57 4 0.0 2.0 0.00 0.01 0.01 88 1017.5
20260508041004 57 4 0.0 2.0 0.00 0.01 0.01 87 1017.0
20260508040836 57 4 1.0 2.0 0.00 0.01 0.01 88 1017.7
20260508040541 57 4 0.0 1.0 0.00 0.01 0.01 87 1016.9
20260508040332 57 4 0.0 1.0 0.00 0.01 0.01 87 1017.5
20260508040038 57 4 0.0 2.0 0.00 0.01 0.01 87 1017.0
20260508035827 57 4 0.0 2.0 0.00 0.01 0.01 87 1017.8
20260508035525 57 4 0.0 2.0 0.00 0.01 0.01 87 1017.1
20260508035322 58 4 1.0 2.0 0.00 0.01 0.01 87 1017.5
20260508035048 57 4 0.0 0.0 0.00 0.01 0.01 87 1016.7
20260508034819 58 4 0.0 0.0 0.00 0.01 0.01 87 1017.2
20260508034540 57 4 0.0 0.0 0.00 0.01 0.01 87 1016.6
20260508034315 58 4 0.0 0.0 0.00 0.01 0.01 87 1017.3
20260508034033 57 4 0.0 0.0 0.00 0.01 0.01 87 1016.6
20260508033831 58 4 0.0 0.0 0.00 0.01 0.01 86 1017.2
20260508033527 57 4 0.0 0.0 0.00 0.01 0.01 86 1016.5
20260508033329 58 4 0.0 0.0 0.00 0.01 0.01 86 1017.2
20260508033010 58 4 0.0 0.0 0.00 0.01 0.01 86 1016.6
20260508032825 58 4 0.0 0.0 0.00 0.01 0.01 86 1017.3
20260508032504 58 4 0.0 0.0 0.00 0.01 0.01 86 1016.6
20260508032322 58 4 0.0 0.0 0.00 0.01 0.01 86 1017.3
20260508032101 58 4 0.0 0.0 0.00 0.01 0.01 86 1016.6
20260508031818 58 4 0.0 0.0 0.00 0.01 0.01 86 1017.5
20260508031550 58 4 0.0 1.0 0.00 0.01 0.01 86 1016.7
20260508031315 59 4 0.0 2.0 0.00 0.01 0.01 86 1017.2
20260508031043 58 4 0.0 2.0 0.00 0.01 0.01 86 1016.7
20260508030829 59 4 0.0 2.0 0.00 0.01 0.01 86 1017.3
20260508030536 58 4 1.0 2.0 0.00 0.01 0.01 86 1016.8
20260508030326 59 4 1.0 2.0 0.00 0.01 0.01 86 1017.4
20260508030028 58 4 0.0 1.0 0.00 0.01 0.01 86 1016.8
20260508025823 59 4 0.0 1.0 0.00 0.01 0.01 86 1017.4
20260508025521 58 4 0.0 0.0 0.00 0.01 0.01 86 1016.7
20260508025319 59 4 0.0 1.0 0.00 0.01 0.01 86 1017.2
20260508025015 58 4 0.0 2.0 0.00 0.01 0.01 86 1016.6
20260508024817 59 4 0.0 3.0 0.00 0.01 0.01 86 1017.2
20260508024558 58 4 0.0 4.0 0.00 0.01 0.01 86 1016.5
20260508024333 59 4 1.0 4.0 0.00 0.01 0.01 86 1017.3
20260508024050 59 4 2.0 4.0 0.00 0.01 0.01 86 1016.5
20260508023829 59 4 2.0 4.0 0.00 0.01 0.01 85 1017.0
20260508023544 59 4 0.0 0.0 0.00 0.01 0.01 85 1016.3
20260508023345 59 4 0.0 1.0 0.00 0.01 0.01 85 1016.8
20260508023016 59 4 0.0 2.0 0.00 0.01 0.01 85 1015.9
20260508022841 59 4 0.0 2.0 0.00 0.01 0.01 85 1016.6
20260508022541 59 4 0.0 3.0 0.00 0.01 0.01 85 1015.7
20260508022315 59 4 0.0 3.0 0.00 0.01 0.01 85 1016.4
20260508022034 59 4 0.0 4.0 0.00 0.01 0.01 85 1015.5
20260508021828 59 4 2.0 5.0 0.00 0.01 0.01 85 1016.3
20260508021528 59 4 1.0 5.0 0.00 0.01 0.01 85 1015.8
20260508021324 60 4 2.0 5.0 0.00 0.01 0.01 85 1016.5
20260508021024 59 4 2.0 4.0 0.00 0.01 0.01 85 1015.7
20260508020821 60 8 2.0 4.0 0.00 0.01 0.01 84 1016.4
20260508020504 59 4 2.0 4.0 0.00 0.01 0.01 84 1015.7
20260508020317 60 354 2.0 4.0 0.00 0.01 0.01 84 1016.4
20260508020057 60 14 2.0 4.0 0.00 0.01 0.01 84 1015.7
20260508015832 60 32 3.0 4.0 0.00 0.01 0.01 84 1016.4
20260508015550 60 62 1.0 5.0 0.00 0.01 0.01 83 1015.6
20260508015327 60 62 2.0 5.0 0.00 0.01 0.01 83 1016.1
20260508015010 60 62 2.0 5.0 0.00 0.01 0.01 83 1015.3
20260508014840 61 62 3.0 5.0 0.00 0.01 0.01 83 1015.9
20260508014555 60 56 2.0 4.0 0.00 0.01 0.01 83 1015.3
20260508014328 61 52 2.0 4.0 0.00 0.01 0.01 82 1016.1
20260508014048 60 55 0.0 5.0 0.00 0.01 0.01 82 1015.7
20260508013845 61 54 1.0 5.0 0.00 0.01 0.01 81 1016.3
20260508013511 60 54 2.0 5.0 0.00 0.01 0.01 81 1015.4
20260508013321 61 63 2.0 5.0 0.00 0.01 0.01 80 1016.3
20260508013004 61 21 1.0 3.0 0.00 0.01 0.01 80 1015.7
20260508012817 61 28 1.0 3.0 0.00 0.01 0.01 80 1016.3
20260508012558 61 28 1.0 3.0 0.00 0.01 0.01 80 1015.4
20260508012314 61 67 2.0 3.0 0.00 0.01 0.01 79 1016.1
20260508012050 61 67 1.0 4.0 0.00 0.01 0.01 79 1015.4
20260508011830 62 66 1.0 4.0 0.00 0.01 0.01 79 1016.0
20260508011545 61 66 1.0 4.0 0.00 0.01 0.01 79 1015.4
20260508011327 62 66 2.0 4.0 0.00 0.01 0.01 78 1016.2
20260508011034 62 67 1.0 3.0 0.00 0.01 0.01 78 1015.6
20260508010823 62 66 1.0 3.0 0.00 0.01 0.01 78 1016.3
20260508010528 62 66 1.0 4.0 0.00 0.01 0.01 78 1015.5
20260508010338 62 66 1.0 6.0 0.00 0.01 0.01 77 1016.1
20260508010054 62 66 1.0 6.0 0.00 0.01 0.01 78 1015.2
20260508005852 62 97 2.0 6.0 0.00 0.01 0.01 77 1015.9
20260508005529 62 99 2.0 6.0 0.00 0.01 0.01 77 1015.1
20260508005327 63 66 2.0 6.0 0.00 0.01 0.01 77 1015.8
20260508005008 62 51 2.0 6.0 0.00 0.01 0.01 76 1015.3
20260508004822 63 57 3.0 8.0 0.00 0.01 0.01 76 1016.0
20260508004603 62 94 3.0 8.0 0.00 0.01 0.01 76 1015.4
20260508004320 63 70 2.0 8.0 0.00 0.01 0.01 76 1016.0
20260508004054 63 114 2.0 8.0 0.00 0.01 0.01 76 1015.4
20260508003816 63 77 3.0 6.0 0.00 0.01 0.01 76 1016.0
20260508003548 63 62 3.0 6.0 0.00 0.01 0.01 75 1015.4
20260508003332 63 39 3.0 7.0 0.00 0.01 0.01 76 1016.3
20260508003057 63 75 2.0 7.0 0.00 0.01 0.01 76 1015.5
20260508002828 63 68 3.0 6.0 0.00 0.01 0.01 76 1016.3
20260508002538 63 70 2.0 5.0 0.00 0.01 0.01 76 1015.7
20260508002343 63 88 2.0 4.0 0.00 0.01 0.01 76 1016.6
20260508002003 63 88 2.0 4.0 0.00 0.01 0.01 76 1015.9
20260508001837 63 88 3.0 4.0 0.00 0.01 0.01 76 1016.6
20260508001536 63 88 1.0 3.0 0.00 0.01 0.01 76 1016.1
20260508001333 64 88 1.0 3.0 0.00 0.01 0.01 75 1016.8
20260508001031 63 88 1.0 3.0 0.00 0.01 0.01 75 1016.2
20260508000829 64 88 2.0 3.0 0.00 0.01 0.01 75 1016.8
20260508000524 63 89 1.0 3.0 0.00 0.01 0.01 74 1016.3
20260508000324 64 88 2.0 3.0 0.00 0.01 0.01 74 1017.0
20260508000018 63 60 1.0 2.0 0.00 0.01 0.01 74 1016.5
20260507235820 64 60 0.0 3.0 0.00 0.01 0.01 75 1017.2
20260507235603 63 61 0.0 3.0 0.00 0.01 0.01 74 1016.6
20260507235317 64 60 2.0 3.0 0.00 0.01 0.01 74 1017.3
20260507235051 63 61 1.0 3.0 0.00 0.01 0.01 73 1016.6
20260507234849 64 56 1.0 3.0 0.00 0.01 0.01 74 1017.3
20260507234527 63 87 1.0 3.0 0.00 0.01 0.01 73 1016.7
20260507234325 64 77 2.0 3.0 0.00 0.01 0.01 73 1017.2
20260507234010 63 64 0.0 2.0 0.00 0.01 0.01 74 1016.7
20260507233822 64 64 0.0 2.0 0.00 0.01 0.01 74 1017.3
20260507233502 63 64 0.0 4.0 0.00 0.01 0.01 74 1016.8
20260507233317 64 64 1.0 4.0 0.00 0.01 0.01 73 1017.4
20260507233054 63 60 1.0 7.0 0.00 0.01 0.01 73 1016.7
20260507232832 64 60 1.0 7.0 0.00 0.01 0.01 73 1017.4
20260507232545 63 81 2.0 7.0 0.00 0.01 0.01 73 1016.5
20260507232349 64 102 3.0 7.0 0.00 0.01 0.01 72 1017.1
20260507232015 63 89 2.0 4.0 0.00 0.01 0.01 72 1016.7
20260507231823 64 46 3.0 4.0 0.00 0.01 0.01 72 1017.3
20260507231503 63 109 1.0 4.0 0.00 0.01 0.01 73 1016.8
20260507231318 64 137 1.0 7.0 0.00 0.01 0.01 72 1017.4
20260507231058 64 116 0.0 7.0 0.00 0.01 0.01 73 1016.6
20260507230854 64 27 2.0 7.0 0.00 0.01 0.01 73 1017.2
20260507230533 63 76 3.0 7.0 0.00 0.01 0.01 72 1016.4
20260507230329 64 78 4.0 6.0 0.00 0.01 0.01 72 1017.1
20260507230055 63 83 3.0 6.0 0.00 0.01 0.01 73 1016.6
20260507225823 64 50 3.0 5.0 0.00 0.01 0.01 73 1017.1
20260507225546 63 74 2.0 5.0 0.00 0.01 0.01 72 1016.7
20260507225321 64 89 2.0 5.0 0.00 0.01 0.01 72 1017.7
20260507225038 63 34 2.0 5.0 0.00 0.01 0.01 72 1017.0
20260507224817 64 43 2.0 6.0 0.00 0.01 0.01 73 1017.6
20260507224550 63 124 3.0 7.0 0.00 0.01 0.01 73 1016.9
20260507224353 64 64 3.0 7.0 0.00 0.01 0.01 73 1017.6
20260507224057 63 50 3.0 7.0 0.00 0.01 0.01 73 1017.1
20260507223829 64 52 3.0 4.0 0.00 0.01 0.01 73 1017.7
20260507223548 63 108 1.0 5.0 0.00 0.01 0.01 74 1016.9
20260507223343 63 107 2.0 7.0 0.00 0.01 0.01 73 1017.6
20260507223022 63 110 2.0 7.0 0.00 0.01 0.01 73 1016.9
20260507222840 63 152 3.0 7.0 0.00 0.01 0.01 73 1017.5
20260507222552 63 135 1.0 6.0 0.00 0.01 0.01 74 1016.7
20260507222315 63 139 1.0 5.0 0.00 0.01 0.01 74 1017.2
20260507222043 63 52 2.0 5.0 0.00 0.01 0.01 74 1016.8
20260507221830 63 54 2.0 6.0 0.00 0.01 0.01 74 1017.6
20260507221538 63 117 1.0 6.0 0.00 0.01 0.01 73 1017.2
20260507221325 63 117 1.0 6.0 0.00 0.01 0.01 73 1017.8
20260507221003 62 62 3.0 5.0 0.00 0.01 0.01 73 1017.1
20260507220821 63 82 2.0 7.0 0.00 0.01 0.01 73 1017.7
20260507220556 62 136 2.0 7.0 0.00 0.01 0.01 73 1017.2
20260507220316 63 66 1.0 7.0 0.00 0.01 0.01 74 1017.6
20260507220047 62 85 4.0 7.0 0.00 0.01 0.01 74 1016.7
20260507215830 63 41 4.0 8.0 0.00 0.01 0.01 75 1017.6
20260507215544 62 63 3.0 7.0 0.00 0.01 0.01 74 1017.2
20260507215326 63 107 3.0 7.0 0.00 0.01 0.01 74 1017.9
20260507215034 62 36 1.0 8.0 0.00 0.01 0.01 75 1017.5
20260507214821 63 77 1.0 8.0 0.00 0.01 0.01 74 1018.2
20260507214530 62 77 4.0 10.0 0.00 0.01 0.01 73 1017.6
20260507214317 63 106 5.0 10.0 0.00 0.01 0.01 74 1018.1
20260507214015 62 100 5.0 10.0 0.00 0.01 0.01 74 1017.4
20260507213852 63 77 4.0 10.0 0.00 0.01 0.01 76 1018.1
20260507213548 62 79 2.0 5.0 0.00 0.01 0.01 75 1017.5
20260507213328 63 62 2.0 8.0 0.00 0.01 0.01 75 1018.2
20260507213041 62 65 2.0 10.0 0.00 0.01 0.01 75 1017.8
20260507212825 63 65 2.0 10.0 0.00 0.01 0.01 76 1018.5
20260507212531 62 77 3.0 10.0 0.00 0.01 0.01 76 1017.9
20260507212342 63 83 4.0 10.0 0.00 0.01 0.01 76 1018.4
20260507212100 62 23 4.0 10.0 0.00 0.01 0.01 76 1017.8
20260507211815 63 54 4.0 10.0 0.00 0.01 0.01 76 1018.3
20260507211608 62 71 4.0 10.0 0.00 0.01 0.01 77 1017.7
20260507211332 62 27 2.0 7.0 0.00 0.01 0.01 77 1018.3
20260507211041 62 82 2.0 7.0 0.00 0.01 0.01 76 1017.8
20260507210829 62 87 3.0 5.0 0.00 0.01 0.01 76 1018.7
20260507210533 62 143 1.0 6.0 0.00 0.01 0.01 76 1018.4
20260507210326 62 143 3.0 6.0 0.00 0.01 0.01 78 1018.9
20260507210031 61 54 2.0 8.0 0.00 0.01 0.01 78 1018.4
20260507205821 62 27 3.0 9.0 0.00 0.01 0.01 78 1019.1
20260507205552 61 346 3.0 10.0 0.00 0.01 0.01 78 1018.6
20260507205317 61 359 4.0 10.0 0.00 0.01 0.01 77 1019.2
20260507205049 61 16 5.0 10.0 0.00 0.01 0.01 77 1018.6
20260507204835 61 10 4.0 9.0 0.00 0.01 0.01 79 1019.1
20260507204517 61 340 3.0 6.0 0.00 0.01 0.01 80 1018.6
20260507204330 61 359 2.0 6.0 0.00 0.01 0.01 81 1019.0
20260507204103 60 70 3.0 6.0 0.00 0.01 0.01 80 1018.3
20260507203826 60 91 3.0 7.0 0.00 0.01 0.01 81 1018.8
20260507203552 60 120 4.0 7.0 0.00 0.01 0.01 80 1018.2
20260507203317 60 93 3.0 6.0 0.00 0.01 0.01 79 1019.1
20260507203044 60 354 2.0 4.0 0.00 0.01 0.01 81 1019.2
20260507202855 60 53 0.0 4.0 0.00 0.01 0.01 80 1019.8
20260507202507 60 53 1.0 5.0 0.01 0.01 0.01 80 1019.0
20260507202330 60 314 2.0 5.0 0.01 0.01 0.01 80 1019.6
20260507202059 60 318 1.0 9.0 0.01 0.01 0.01 81 1018.8
20260507201826 60 359 2.0 9.0 0.01 0.01 0.01 81 1019.0
20260507201604 60 35 3.0 9.0 0.01 0.01 0.01 82 1018.2
20260507201322 60 14 6.0 9.0 0.01 0.01 0.01 82 1018.9
20260507201046 60 354 5.0 9.0 0.01 0.01 0.01 82 1018.4
20260507200817 60 11 3.0 12.0 0.01 0.01 0.01 83 1018.9
20260507200538 59 359 4.0 12.0 0.01 0.01 0.01 83 1018.1
20260507200333 60 4 5.0 12.0 0.01 0.01 0.01 84 1018.3
20260507200031 59 24 7.0 12.0 0.01 0.01 0.01 84 1017.2
20260507195830 60 4 7.0 9.0 0.01 0.01 0.01 84 1017.6
20260507195526 59 4 4.0 7.0 0.01 0.01 0.01 83 1017.3
20260507195325 60 4 3.0 6.0 0.01 0.01 0.01 83 1018.1
20260507195021 59 70 3.0 7.0 0.01 0.01 0.01 83 1017.5
20260507194822 60 81 2.0 6.0 0.01 0.01 0.01 83 1018.1
20260507194506 59 86 3.0 6.0 0.01 0.01 0.01 83 1017.5
20260507194318 60 110 3.0 6.0 0.01 0.01 0.01 83 1018.2
20260507194105 59 70 2.0 6.0 0.01 0.01 0.01 83 1018.0
20260507193815 60 61 3.0 6.0 0.01 0.01 0.01 83 1018.4
20260507193553 60 73 2.0 6.0 0.01 0.01 0.01 83 1018.0
20260507193331 60 47 3.0 6.0 0.01 0.01 0.01 82 1018.7
20260507193045 60 58 2.0 5.0 0.01 0.01 0.01 82 1018.5
20260507192826 60 26 3.0 5.0 0.01 0.01 0.01 80 1019.2
20260507192541 60 214 0.0 3.0 0.00 0.00 0.00 80 1019.2
20260507192321 60 214 1.0 4.0 0.00 0.00 0.00 79 1019.9
20260507192016 60 214 1.0 4.0 0.00 0.00 0.00 79 1019.8
20260507191817 60 214 1.0 5.0 0.00 0.00 0.00 79 1020.5
20260507191558 60 214 1.0 7.0 0.00 0.00 0.00 79 1019.9
20260507191351 60 214 2.0 7.0 0.00 0.00 0.00 78 1020.4
20260507191033 60 214 2.0 7.0 0.00 0.00 0.00 78 1020.0
20260507190847 60 192 5.0 7.0 0.00 0.00 0.00 78 1020.6
20260507190604 60 203 2.0 9.0 0.00 0.00 0.00 77 1019.8
20260507190344 60 305 2.0 10.0 0.00 0.00 0.00 77 1020.1
20260507190035 60 359 3.0 10.0 0.00 0.00 0.00 77 1019.1
20260507185819 60 12 5.0 11.0 0.00 0.01 0.00 76 1019.7
20260507185525 60 349 6.0 11.0 0.00 0.01 0.00 76 1019.2
20260507185316 60 48 5.0 11.0 0.00 0.01 0.00 77 1019.7
20260507185018 60 25 5.0 11.0 0.00 0.01 0.00 77 1018.9
20260507184831 60 35 6.0 9.0 0.00 0.01 0.00 77 1019.4
20260507184511 59 8 4.0 10.0 0.00 0.01 0.00 77 1019.2
20260507184326 60 10 4.0 10.0 0.00 0.01 0.00 76 1019.8
20260507184057 59 41 4.0 10.0 0.00 0.01 0.00 77 1019.2
20260507183823 59 27 4.0 10.0 0.00 0.01 0.00 77 1019.9
20260507183551 59 33 5.0 10.0 0.00 0.01 0.00 76 1019.3
20260507183320 59 16 5.0 8.0 0.00 0.01 0.00 76 1020.0
20260507183041 59 31 2.0 9.0 0.00 0.01 0.00 77 1019.5
20260507182816 59 79 2.0 9.0 0.00 0.01 0.00 77 1020.0
20260507182533 59 58 4.0 9.0 0.00 0.01 0.00 77 1019.3
20260507182331 60 32 4.0 10.0 0.00 0.01 0.00 77 1019.9
20260507182015 59 60 4.0 10.0 0.00 0.01 0.00 77 1019.3
20260507181828 60 33 5.0 10.0 0.00 0.01 0.00 77 1019.8
20260507181507 59 77 5.0 9.0 0.00 0.01 0.00 77 1019.4
20260507181324 60 82 5.0 8.0 0.00 0.01 0.00 77 1020.4
20260507181102 59 81 2.0 7.0 0.00 0.01 0.00 76 1020.1
20260507180821 60 83 0.0 7.0 0.00 0.01 0.00 77 1020.7
20260507180559 59 48 3.0 11.0 0.00 0.01 0.00 77 1019.9
20260507180316 60 106 3.0 11.0 0.00 0.01 0.00 77 1020.5
20260507180048 59 48 3.0 11.0 0.00 0.01 0.00 76 1019.8
20260507175832 60 62 6.0 11.0 0.00 0.01 0.00 76 1020.3
20260507175535 59 53 6.0 13.0 0.00 0.01 0.00 76 1019.7
20260507175328 59 69 5.0 14.0 0.00 0.01 0.00 77 1020.2
20260507175029 59 22 6.0 14.0 0.00 0.01 0.00 77 1019.6
20260507174823 59 54 6.0 14.0 0.00 0.01 0.00 77 1020.1
20260507174523 59 49 7.0 14.0 0.00 0.01 0.00 77 1019.3
20260507174340 59 23 7.0 14.0 0.00 0.01 0.00 77 1020.0